Torna al catalogo

FFLY-2

AttivoScienzaSSO
NORAD 65322·PAYLOAD·🇺🇸 United States

Lanciato Aug 26, 2025 da Vandenberg Space Force Base

Loading…

Prossimi Passaggi (prossime 24 ore)

TLE

AggiornatoSource: Space-Track

Epoca: Sep 14, 2026, 12:06 UTC

1 65322U 25188H   26257.50445902  .00000895  00000-0  91829-4 0  9998
2 65322  97.7298 331.1940 0012503 181.3428 178.7760 14.92841723 57235

Traccia FFLY-2 in tempo reale con AllMySat

Download on the App Store